Regional Weather Roundup
Issued by NWS Cleveland, OH

Home | Current Version | Previous Version | Graphics & Text | Print | Product List | Glossary Off
Versions: 1 2 3 4 5 6 7 8 9 10 11 12 13 14 15 16 17 18 19 20 21 22 23 24 25 26 27 28 29 30 31 32 33 34 35 36 37 38 39 40 41 42 43 44 45 46 47 48 49 50

840
ASUS41 KCLE 232012
RWRCLE
OHIO REGIONAL WEATHER ROUNDUP
NATIONAL WEATHER SERVICE WILMINGTON, OH
400 PM EDT SAT SEP 23 2017

NOTE: "FAIR" INDICATES FEW OR NO CLOUDS BELOW 12,000 FEET WITH NO
SIGNIFICANT WEATHER AND/OR OBSTRUCTIONS TO VISIBILITY.

OHZ001>008-015>018-024>027-034-035-043-044-232100-
   NORTHWEST OHIO

CITY           SKY/WX    TMP DP  RH WIND       PRES   REMARKS
DEFIANCE       FAIR      91  63  39 N8        30.10F HX  92
FINDLAY        FAIR      91  58  32 NE9       30.10F HX  90
TOLEDO EXPRESS FAIR      91  68  46 NE8       30.11F HX  95
TOLEDO EXEC    FAIR      88  61  40 E7        30.12F
LIMA           FAIR      90  60  36 NE8       30.11F
$$

OHZ009>014-019>023-028>033-038-089-232100-
   NORTHEAST OHIO

CITY           SKY/WX    TMP DP  RH WIND       PRES   REMARKS
CLE-HOPKINS    FAIR      90  50  25 N9        30.15F
CLE-LAKEFRONT  FAIR      80  63  55 N6        30.12F
CUY CO. ARPT   SUNNY     88  57  35 N7        30.14F
LORAIN-ELYRIA  FAIR      86  52  30 NE8       30.14F
ASHTABULA      FAIR      88  56  33 N7        30.15F
AKRON-CANTON   FAIR      91  57  31 NE9       30.13F
WOOSTER        FAIR      89  60  37 NE9       30.13F
MANSFIELD      FAIR      89  60  37 NE7       30.14F
YOUNGSTOWN     FAIR      89  58  34 NE9G18    30.14F
$$

OHZ042-051>053-060>062-070>072-077>081-232100-
  SOUTHWEST OHIO

CITY           SKY/WX    TMP DP  RH WIND       PRES   REMARKS
CINC-COVINGTON FAIR      89  64  43 NE10      30.08F HX  90
CINC-LUNKEN    FAIR      91  66  43 NE9       30.07F HX  93
HAMILTON       FAIR      89  65  44 VRB3      30.08F HX  91
DAYTON         FAIR      89  61  38 NE5       30.10F
WRIGHT-PAT AFB FAIR      90  60  35 E3        30.08F
DAYTON GENERAL FAIR      89  63  41 E3        30.09F HX  90
WILMINGTON     FAIR      88  62  41 NE7       30.09F
$$

OHZ036-037-039>041-045>050-054>059-063>069-073>076-082>088-232100-
  CENTRAL AND SOUTHEAST OHIO

CITY           SKY/WX    TMP DP  RH WIND       PRES   REMARKS
COLUMBUS       FAIR      91  59  33 VRB6      30.08F HX  90
OSU AIRPORT    FAIR      90  59  35 VRB7      30.09F
BOLTON FIELD   SUNNY     90  59  35 NE7       30.10F
RICKENBACK AFB FAIR      89  58  35 E5        30.08F
NEWARK         FAIR      90  55  30 E7        30.09F
MARION         FAIR      92  54  27 NE13      30.11F HX  90
LANCASTER      FAIR      88  57  34 NE8       30.10F
ZANESVILLE     FAIR      89  51  27 E9        30.10F
NEW PHILLY     FAIR      93  56  28 NE13      30.11F HX  91
$$




USA.gov is the U.S. government's official web portal to all federal, state and local government web resources and services.